Regional Weather Roundup
Issued by NWS

Home | Current Version | Previous Version | Text Only | Print | Product List | Glossary On
Versions: 1 2 3 4 5 6 7 8 9 10 11 12 13 14 15 16 17 18 19 20 21 22 23 24 25 26 27 28 29 30 31 32 33 34 35 36 37 38 39 40 41 42 43 44 45 46 47 48 49 50
000
ASUS43 KDMX 221207
RWRIA

WEATHER ROUNDUP FOR IOWA
NATIONAL WEATHER SERVICE DES MOINES IA
600 AM CST SAT NOV 22 2014

NOTE: "FAIR" INDICATES FEW OR NO CLOUDS BELOW 12,000 FEET WITH NO
SIGNIFICANT WEATHER AND/OR OBSTRUCTIONS TO VISIBILITY.

* - THESE STATIONS ARE NOT NWS STATIONS...THUS NOT UNDER NWS
QUALITY CONTROL.  THEY ALSO DO NOT REPORT WEATHER SUCH
AS PRECIPITATION OR FOG.

IAZ001>003-012>014-020>022-031>034-043>046-221300-
   NORTHWEST IOWA

CITY           SKY/WX    TMP DP  RH WIND       PRES   REMARKS
CARROLL *      CLOUDY    37  36  93 SW14      29.86F FOG     WCI  29
CHEROKEE *     FOG       35  35 100 S9        29.83F VSB 1   WCI  28
DENISON *      FOG       36  36 100 S8        29.85F VSB 3/4 WCI  29
LE MARS *      FOG       36  36 100 S12       29.81F VSB 1   WCI  27
ORANGE CITY *  FOG       36  34  93 S10       29.80F VSB 1/4 WCI  28
SHELDON *      FOG       36  36 100 S13       29.79F VSB 0   WCI  27
SIOUX CITY     CLOUDY    38  35  89 S9        29.84F FOG     WCI  31
6HR MIN TEMP:  37; 6HR MAX TEMP:  39;

SPENCER        FOG       36  34  92 SW14      29.82F VSB 3/4 WCI  27
6HR MIN TEMP:  34; 6HR MAX TEMP:  36;

STORM LAKE *   FOG       36  36 100 SW14      29.83F VSB 3/4 WCI  27
$$

IAZ055>058-069>071-079>083-090>094-221300-
   SOUTHWEST IOWA

CITY           SKY/WX    TMP DP  RH WIND       PRES   REMARKS
ATLANTIC *     CLOUDY    37  37 100 SW10      29.89F FOG     WCI  30
AUDUBON *      CLOUDY    37  32  81 S9        29.89F HAZE    WCI  31
CLARINDA *     CLOUDY    41  41 100 S12       29.94F FOG
COUNCIL BLFS * CLOUDY    37  37 100 SW9       29.88F FOG     WCI  31
CRESTON *      FOG       39  39 100 SW13      29.91F VSB 1/4 WCI  32
HARLAN  *      FOG       36  36 100 SW9       29.92F VSB 1   WCI  29
LAMONI         CLOUDY    43  42  97 SW15      29.93F FOG
6HR MIN TEMP:  36; 6HR MAX TEMP:  43; 6HR PCP: TRACE;

RED OAK *      CLOUDY    39  39 100 SW10      29.92F FOG     WCI  32
SHENANDOAH *   CLOUDY    39  39 100 SW8       29.94S FOG     WCI  34
$$

IAZ047>049-059>061-072>074-084-221300-
   CENTRAL IOWA

CITY           SKY/WX    TMP DP  RH WIND       PRES   REMARKS
AMES           FOG       37  35  92 S8        29.89F VSB 1   WCI  31
6HR MIN TEMP:  35; 6HR MAX TEMP:  36;

ANKENY *       FOG       37  37 100 S8        29.90F VSB 1   WCI  31
CHARITON *     FOG       45  45 100 SW8       29.93S VSB 1/2
DES MOINES     DRZL/FOG  39  38  96 S10       29.91F VSB 1/2 WCI  32
6HR MIN TEMP:  38; 6HR MAX TEMP:  40; 6HR PCP: TRACE;

GRINNELL*      FOG       36  36 100 S6        29.92F VSB 1/2 WCI  31
KNOXVILLE *    FOG       39  39 100 S5        29.91F VSB 0
MARSHALLTOWN   FOG       35  34  96 SE6       29.89F VSB 1/4 WCI  30
6HR MIN TEMP:  33; 6HR MAX TEMP:  36;

PELLA *        SNOW      39  38  98 S5        29.94F VSB 1/4
PERRY *        CLOUDY    37  37 100 S7        29.89F FOG     WCI  32
$$

IAZ004>006-015-016-023>025-035-036-221300-
   NORTH CENTRAL IOWA

CITY           SKY/WX    TMP DP  RH WIND       PRES   REMARKS
ALGONA *       FOG       34  34 100 S13       29.84S VSB 1/4 WCI  25
CLARION *      FOG       34  34 100 S9        29.86F VSB 0   WCI  26
ESTHERVILLE    FOG       34  34 100 SW13      29.81F VSB 1/2 WCI  25
6HR MIN TEMP:  33; 6HR MAX TEMP:  35;

FORT DODGE *   CLOUDY    36  34  93 S9        29.87F VSB 3/4 WCI  29
MASON CITY     FOG       34  34 100 S9        29.87F VSB 1/2 WCI  27
6HR MIN TEMP:  33; 6HR MAX TEMP:  34;

FOREST CITY *  FOG       34  34 100 S7        29.85S VSB 1/2 WCI  28
IOWA FALLS *   CLOUDY    36  34  93 S9        29.88F FOG     WCI  29
$$

IAZ007>011-017>019-026>030-037>042-050>054-066-221300-
   NORTHEAST IOWA

CITY           SKY/WX    TMP DP  RH WIND       PRES   REMARKS
CEDAR RAPIDS   CLOUDY    34  34 100 S7        29.93F FOG     WCI  28
6HR MIN TEMP:  32; 6HR MAX TEMP:  34; 6HR PCP: TRACE;

CHARLES CITY * CLOUDY    34  34 100 S10G17    29.88F FOG     WCI  26
CLINTON *      CLOUDY    36  32  87 S3        30.01F
DECORAH *      CLOUDY    34  34 100 S8        29.88F FOG     WCI  27
DUBUQUE        FOG       32  32 100 S12       29.95F VSB 1/4 WCI  23
6HR MIN TEMP:  30; 6HR MAX TEMP:  32; 6HR PCP:  0.05;

MONTICELLO *   CLOUDY    34  34 100 S9        29.96F FOG     WCI  26
OELWEIN *      FOG       34  34 100 S10G17    29.91F VSB 1/4 WCI  26
WATERLOO       CLOUDY    34  34 100 S12       29.90F FOG     WCI  25
6HR MIN TEMP:  33; 6HR MAX TEMP:  34;

$$

IAZ064-065-067-068-078-221300-
   EAST CENTRAL IOWA

CITY           SKY/WX    TMP DP  RH WIND       PRES   REMARKS
DAVENPORT      CLOUDY    38  35  89 S9        29.99F FOG     WCI  31
6HR MIN TEMP:  33; 6HR MAX TEMP:  38; 6HR PCP:  0.10;

IOWA CITY      CLOUDY    35  35 100 S3        29.98F FOG
6HR MIN TEMP:  33; 6HR MAX TEMP:  35; 6HR PCP:  0.01;

MT. PLEASANT * CLOUDY    40  39  97 S9        29.99F FOG     WCI  34
MUSCATINE *    CLOUDY    39  37  93 S7        29.99F FOG     WCI  34
QUAD CITIES    CLOUDY    40  37  89 S6        29.99F FOG
6HR MIN TEMP:  34; 6HR MAX TEMP:  40; 6HR PCP:  0.11;

$$

IAZ062-063-075>077-085>089-095>099-221300-
   SOUTHEAST IOWA

CITY           SKY/WX    TMP DP  RH WIND       PRES   REMARKS
BURLINGTON     CLOUDY    43  39  86 S9        29.99F
6HR MIN TEMP:  36; 6HR MAX TEMP:  43; 6HR PCP: TRACE;

FAIRFIELD *    CLOUDY    39  39 100 S8        29.96F WCI  34
FORT MADISON * CLOUDY    46  43  87 S10       30.00F
KEOKUK *       CLOUDY    46  43  87 S12G18    29.99F
OSKALOOSA *    FOG       38  37  97 S7        29.94F VSB 1/2 WCI  33
CENTERVILLE *  CLOUDY    46  46 100 S8        29.95F FOG
OTTUMWA        FOG       41  40  96 S8        29.94F VSB 3/4
6HR MIN TEMP:  34; 6HR MAX TEMP:  41; 6HR PCP: TRACE;

WASHINGTON *   CLOUDY    39  39 100 S14       29.96F FOG     WCI  31
$$

ABBREVIATIONS USED IN REMARKS
   TC - TEMPERATURES IN CELSIUS
  WCI - WIND CHILL INDEX
   HX - HEAT INDEX
  VSB - VISIBILITY
$$




USA.gov is the U.S. government's official web portal to all federal, state and local government web resources and services.